Location: Strawberry
(45.6646°N, 111.9596°W)
Time: 16:21:11
(UTC+00:00)

SR - Pass Details

Date: 12 October 2022
Orbit: 577 x 874 km, 66.7° (Epoch: 05 December)

Event Time Altitude Azimuth Distance (km) Brightness Sun altitude
Rises 02:27:27 0° 217° (SW) 3,438 ? -18.0°
Reaches altitude 10° 02:29:55 10° 219° (SW) 2,516 ? -18.4°
Maximum altitude 02:35:48 74° 304° (NW) 911 ? -19.4°
Drops below altitude 10° 02:41:38 10° 30° (NNE) 2,491 ? -20.4°
Enters shadow 02:43:34 - 32° (NNE) 3,204 ? -20.8°
